Groton, CT

10:59 PM EDT on March 29, 2017 (GMT -0400)
Groton-New London

Weather History for KGON - February, 2014

Change the Weather History Date:

Friday, February 21, 2014

  Actual Average Record
Temperature  
Mean Temperature 42 °F -  
Max Temperature 50 °F 42 °F 60 °F (1981)
Min Temperature 35 °F 22 °F -5 °F (2015)
Degree Days  
Heating Degree Days 22    
Moisture  
Dew Point 40 °F    
Average Humidity 99    
Maximum Humidity 100    
Minimum Humidity 93    
Precipitation  
Precipitation 0.06 in - - ()
Sea Level Pressure  
Sea Level Pressure 29.87 in    
Wind  
Wind Speed 9 mph (East)    
Max Wind Speed 18 mph    
Max Gust Speed 29 mph    
Visibility 3 miles    
Events Fog , Rain    
Averages and records for this station are not official NWS values.
T = Trace of Precipitation, MM = Missing Value Source: NWS Daily Summary

Daily Weather History Graph

Daily Weather History Graph

Search for Another Location

Airport or City:

Trip Planner

Search our weather history database for the weather conditions in past years. The results will help you decide how hot, cold, wet, or windy it might be!

Date:

Astronomy

Feb. 21, 2014 Rise Set
Actual Time 6:34 AM EST 5:29 PM EST
Civil Twilight 6:06 AM EST 5:57 PM EST
Nautical Twilight 5:34 AM EST 6:29 PM EST
Astronomical Twilight 5:02 AM EST 7:01 PM EST
Moon No Moon Rise 9:52 AM EST (2/21)
Length of Visible Light 11h 50m
Length of Day
10h 54m
Waning Gibbous, 61% of the Moon is Illuminated
Feb 21
Waning Gibbous
Feb 22
Last Quarter
Mar 1
New
Mar 8
First Quarter
Mar 16
Full

Hourly Weather History & Observations

Time (EST) Temp. Windchill Dew Point Humidity Pressure Visibility Wind Dir Wind Speed Gust Speed Precip Events Conditions
12:56 AM 36.0 °F 28.5 °F 35.1 °F 97% 30.08 in 7.0 mi ENE 10.4 mph - 0.00 in   Overcast
1:40 AM 35.6 °F 28.0 °F 33.8 °F 93% 30.07 in 6.0 mi ENE 10.4 mph - 0.00 in   Overcast
1:56 AM 36.0 °F 29.0 °F 34.0 °F 93% 30.06 in 5.0 mi NE 9.2 mph - 0.00 in   Overcast
2:09 AM 35.6 °F 28.0 °F 33.8 °F 93% 30.05 in 3.0 mi ENE 10.4 mph - N/A   Overcast
2:56 AM 36.0 °F 28.5 °F 34.0 °F 93% 30.04 in 4.0 mi NE 10.4 mph - N/A   Overcast
3:56 AM 35.1 °F 28.6 °F 35.1 °F 100% 30.01 in 3.0 mi NE 8.1 mph - N/A   Overcast
4:30 AM 35.6 °F 28.0 °F 35.6 °F 100% 30.00 in 2.5 mi ENE 10.4 mph - N/A   Overcast
4:43 AM 35.6 °F 28.6 °F 35.6 °F 100% 30.01 in 3.0 mi ENE 9.2 mph - N/A   Overcast
4:56 AM 36.0 °F 27.5 °F 35.1 °F 97% 30.00 in 3.0 mi ENE 12.7 mph - N/A   Overcast
5:30 AM 35.6 °F 27.5 °F 35.6 °F 100% 30.01 in 2.5 mi NE 11.5 mph - N/A   Overcast
5:56 AM 36.0 °F 29.0 °F 35.1 °F 97% 30.01 in 2.5 mi NE 9.2 mph - N/A   Overcast
6:56 AM 36.0 °F 29.0 °F 35.1 °F 97% 30.02 in 1.8 mi NE 9.2 mph - N/A   Overcast
7:56 AM 36.0 °F 29.0 °F 35.1 °F 97% 30.01 in 1.5 mi NE 9.2 mph - N/A   Overcast
8:56 AM 37.0 °F 30.4 °F 36.0 °F 96% 29.99 in 1.5 mi NE 9.2 mph - N/A   Overcast
9:35 AM 37.4 °F 32.1 °F 35.6 °F 93% 29.98 in 2.0 mi NE 6.9 mph - N/A   Overcast
9:56 AM 37.0 °F 32.4 °F 37.0 °F 100% 29.99 in 3.0 mi NE 5.8 mph - 0.00 in Rain Light Rain
10:49 AM 37.4 °F 32.8 °F 37.4 °F 100% 29.95 in 2.5 mi NE 5.8 mph - 0.00 in   Overcast
10:56 AM 37.9 °F 32.1 °F 37.9 °F 100% 29.94 in 2.0 mi NE 8.1 mph - 0.00 in   Overcast
11:06 AM 37.4 °F 31.4 °F 37.4 °F 100% 29.94 in 1.2 mi NE 8.1 mph - N/A   Overcast
11:24 AM 37.4 °F 31.4 °F 37.4 °F 100% 29.93 in 0.8 mi NE 8.1 mph - 0.00 in Rain Light Rain
11:38 AM 37.4 °F 32.8 °F 37.4 °F 100% 29.93 in 1.0 mi NE 5.8 mph - 0.00 in Rain Light Rain
11:56 AM 39.0 °F 34.0 °F 39.0 °F 100% 29.91 in 0.8 mi NE 6.9 mph - 0.00 in Rain Light Rain
12:12 PM 39.2 °F 33.6 °F 39.2 °F 100% 29.89 in 0.2 mi NE 8.1 mph - 0.00 in Fog Fog
12:29 PM 39.2 °F 35.9 °F 39.2 °F 100% 29.88 in 0.2 mi NNE 4.6 mph - 0.00 in Fog Fog
12:56 PM 39.9 °F 36.7 °F 39.9 °F 100% 29.85 in 0.2 mi ENE 4.6 mph - 0.00 in Fog Fog
1:56 PM 42.1 °F 39.2 °F 42.1 °F 100% 29.80 in 0.2 mi ENE 4.6 mph - N/A Fog Fog
2:56 PM 44.1 °F 41.5 °F 44.1 °F 100% 29.78 in 0.2 mi ESE 4.6 mph - N/A Fog Fog
3:56 PM 46.0 °F 41.9 °F 46.0 °F 100% 29.74 in 0.2 mi SSE 8.1 mph - N/A Fog Fog
4:45 PM 50.0 °F - 50.0 °F 100% 29.72 in 0.5 mi SW 15.0 mph 20.7 mph 0.06 in Fog , Rain Heavy Rain
4:56 PM 50.0 °F - 50.0 °F 100% 29.71 in 0.8 mi SW 13.8 mph 20.7 mph 0.06 in Rain Rain
4:59 PM 50.0 °F - 50.0 °F 100% 29.71 in 1.0 mi SSW 15.0 mph - 0.00 in Rain Rain
5:09 PM 48.2 °F - 48.2 °F 100% 29.71 in 1.2 mi SSW 18.4 mph 24.2 mph 0.00 in Rain Light Rain
5:18 PM 46.4 °F 39.5 °F 46.4 °F 100% 29.70 in 3.0 mi South 17.3 mph - 0.00 in Rain Light Rain
5:40 PM 44.6 °F 38.8 °F 44.6 °F 100% 29.70 in 1.8 mi South 11.5 mph - 0.00 in Rain Light Rain
5:56 PM 44.1 °F 38.6 °F 44.1 °F 100% 29.71 in 1.8 mi SSW 10.4 mph - 0.00 in Rain Light Rain
5:59 PM 44.6 °F 38.8 °F 44.6 °F 100% 29.70 in 2.0 mi SSW 11.5 mph - 0.00 in Rain Light Rain
6:09 PM 44.6 °F 39.7 °F 44.6 °F 100% 29.70 in 5.0 mi SW 9.2 mph - 0.00 in   Overcast
6:21 PM 44.6 °F 38.1 °F 44.6 °F 100% 29.72 in 1.8 mi SW 13.8 mph 18.4 mph 0.00 in   Overcast
6:35 PM 46.4 °F 40.7 °F 46.4 °F 100% 29.74 in 3.0 mi WSW 12.7 mph 28.8 mph 0.00 in Rain Light Rain
6:51 PM 44.6 °F 37.2 °F 44.6 °F 100% 29.75 in 1.8 mi WSW 17.3 mph 21.9 mph 0.00 in Rain Light Rain
6:56 PM 43.0 °F 37.2 °F 43.0 °F 100% 29.75 in 1.0 mi WSW 10.4 mph 21.9 mph 0.00 in   Overcast
7:27 PM 44.6 °F - 44.6 °F 100% 29.73 in 2.0 mi Calm Calm - N/A   Overcast
7:41 PM 42.8 °F - 42.8 °F 100% 29.74 in 0.8 mi Calm Calm - N/A   Overcast
7:49 PM 42.8 °F 38.0 °F 42.8 °F 100% 29.74 in 2.0 mi SW 8.1 mph - N/A   Overcast
7:56 PM 43.0 °F 39.5 °F 42.1 °F 97% 29.73 in 3.0 mi SW 5.8 mph - N/A   Overcast
8:56 PM 42.1 °F 37.7 °F 42.1 °F 100% 29.77 in 7.0 mi WSW 6.9 mph - N/A   Overcast
9:56 PM 43.0 °F 38.8 °F 41.0 °F 93% 29.83 in 10.0 mi SW 6.9 mph - N/A   Mostly Cloudy
10:56 PM 39.9 °F 37.8 °F 39.0 °F 97% 29.87 in 9.0 mi SW 3.5 mph - N/A   Clear
11:56 PM 37.9 °F - 37.9 °F 100% 29.89 in 7.0 mi Calm Calm - N/A   Clear